Time,TemperatureF,DewpointF,PressureIn,WindDirection,WindDirectionDegrees,WindSpeedMPH,WindSpeedGustMPH,Humidity,HourlyPrecipIn,Conditions,Clouds,dailyrainin,SoftwareType,DateUTC
2013-03-04 00:01:00,27.0,24.0,30.24,ESE,114,0.0,0.0,89,0.00,,,0.00,,2013-03-04 08:01:00,
2013-03-04 00:11:00,27.0,24.0,30.24,NNE,22,0.0,0.0,89,0.00,,,0.00,,2013-03-04 08:11:00,
2013-03-04 00:21:00,27.0,24.0,30.24,NNE,22,0.0,0.0,89,0.00,,,0.00,,2013-03-04 08:21:00,
2013-03-04 00:31:00,26.0,23.0,30.24,SSE,159,0.0,0.0,89,0.00,,,0.00,,2013-03-04 08:31:00,
2013-03-04 00:41:00,26.0,23.0,30.24,SSE,159,0.0,0.0,89,0.00,,,0.00,,2013-03-04 08:41:00,
2013-03-04 00:52:00,27.0,24.0,30.24,East,87,0.0,0.0,89,0.00,,,0.00,,2013-03-04 08:52:00,
2013-03-04 01:01:00,26.0,23.0,30.22,South,185,0.0,0.0,89,0.00,,,0.00,,2013-03-04 09:01:00,
2013-03-04 01:11:00,26.0,23.0,30.22,South,185,0.0,0.0,89,0.00,,,0.00,,2013-03-04 09:11:00,
2013-03-04 01:21:00,26.0,23.0,30.22,SSE,154,0.0,0.0,89,0.00,,,0.00,,2013-03-04 09:21:00,
2013-03-04 01:31:00,26.0,23.0,30.22,ESE,112,0.0,0.0,89,0.00,,,0.00,,2013-03-04 09:31:00,
2013-03-04 01:41:00,26.0,23.0,30.22,ESE,112,0.0,0.0,89,0.00,,,0.00,,2013-03-04 09:41:00,
2013-03-04 01:52:00,25.0,22.0,30.22,SE,136,0.0,0.0,89,0.00,,,0.00,,2013-03-04 09:52:00,
2013-03-04 02:01:00,25.0,22.0,30.21,South,191,0.0,0.0,89,0.00,,,0.00,,2013-03-04 10:01:00,
2013-03-04 02:11:00,25.0,22.0,30.21,South,191,0.0,0.0,89,0.00,,,0.00,,2013-03-04 10:11:00,
2013-03-04 02:21:00,25.0,22.0,30.22,SSE,150,0.0,0.0,89,0.00,,,0.00,,2013-03-04 10:21:00,
2013-03-04 02:31:00,25.0,22.0,30.22,SE,135,0.0,0.0,90,0.00,,,0.00,,2013-03-04 10:31:00,
2013-03-04 02:41:00,25.0,22.0,30.19,East,100,0.0,0.0,89,0.00,,,0.00,,2013-03-04 10:41:00,
2013-03-04 02:52:00,25.0,22.0,30.19,East,100,0.0,0.0,89,0.00,,,0.00,,2013-03-04 10:52:00,
2013-03-04 03:01:00,26.0,23.0,30.19,East,92,0.0,0.0,90,0.00,,,0.00,,2013-03-04 11:01:00,
2013-03-04 03:11:00,26.0,23.0,30.19,East,92,0.0,0.0,90,0.00,,,0.00,,2013-03-04 11:11:00,
2013-03-04 03:21:00,25.0,22.0,30.19,SW,225,0.0,0.0,90,0.00,,,0.00,,2013-03-04 11:21:00,
2013-03-04 03:31:00,25.0,22.0,30.19,SSW,205,0.0,0.0,89,0.00,,,0.00,,2013-03-04 11:31:00,
2013-03-04 03:41:00,25.0,22.0,30.19,SSW,205,0.0,0.0,89,0.00,,,0.00,,2013-03-04 11:41:00,
2013-03-04 03:52:00,24.0,21.0,30.19,South,180,0.0,0.0,89,0.00,,,0.00,,2013-03-04 11:52:00,
2013-03-04 04:01:00,24.0,21.0,30.17,ESE,106,0.0,0.0,89,0.00,,,0.00,,2013-03-04 12:01:00,
2013-03-04 04:11:00,24.0,21.0,30.17,ESE,106,0.0,0.0,89,0.00,,,0.00,,2013-03-04 12:11:00,
2013-03-04 04:22:00,24.0,21.0,30.17,SE,143,0.0,0.0,89,0.00,,,0.00,,2013-03-04 12:22:00,
2013-03-04 04:32:00,23.0,20.0,30.17,SSW,202,0.0,0.0,89,0.00,,,0.00,,2013-03-04 12:32:00,
2013-03-04 04:42:00,23.0,20.0,30.17,SSW,202,0.0,0.0,89,0.00,,,0.00,,2013-03-04 12:42:00,
2013-03-04 04:52:00,23.0,20.0,30.17,SSW,202,0.0,0.0,89,0.00,,,0.00,,2013-03-04 12:52:00,
2013-03-04 05:01:00,23.0,20.0,30.17,SW,224,0.0,0.0,89,0.00,,,0.00,,2013-03-04 13:01:00,
2013-03-04 05:11:00,23.0,20.0,30.17,SW,224,0.0,0.0,89,0.00,,,0.00,,2013-03-04 13:11:00,
2013-03-04 05:21:00,23.0,20.0,30.19,SSE,156,0.0,0.0,89,0.00,,,0.00,,2013-03-04 13:21:00,
2013-03-04 05:31:00,23.0,20.0,30.17,ESE,118,0.0,0.0,89,0.00,,,0.00,,2013-03-04 13:31:00,
2013-03-04 05:41:00,23.0,20.0,30.17,ESE,118,0.0,0.0,89,0.00,,,0.00,,2013-03-04 13:41:00,
2013-03-04 05:52:00,22.0,19.0,30.17,SSE,158,0.0,0.0,89,0.00,,,0.00,,2013-03-04 13:52:00,
2013-03-04 06:01:00,23.0,20.0,30.17,NE,40,0.0,0.0,89,0.00,,,0.00,,2013-03-04 14:01:00,
2013-03-04 06:11:00,23.0,20.0,30.17,NE,40,0.0,0.0,89,0.00,,,0.00,,2013-03-04 14:11:00,
2013-03-04 06:21:00,22.0,19.0,30.17,South,180,0.0,0.0,89,0.00,,,0.00,,2013-03-04 14:21:00,
2013-03-04 06:32:00,23.0,20.0,30.16,South,180,0.0,0.0,89,0.00,,,0.00,,2013-03-04 14:32:00,
2013-03-04 06:41:00,23.0,20.0,30.16,South,180,0.0,0.0,89,0.00,,,0.00,,2013-03-04 14:41:00,
2013-03-04 06:52:00,22.0,19.0,30.16,South,180,0.0,0.0,89,0.00,,,0.00,,2013-03-04 14:52:00,
2013-03-04 07:01:00,23.0,20.0,30.16,SW,236,0.0,0.0,89,0.00,,,0.00,,2013-03-04 15:01:00,
2013-03-04 07:11:00,23.0,20.0,30.16,SW,236,0.0,0.0,89,0.00,,,0.00,,2013-03-04 15:11:00,
2013-03-04 07:21:00,23.0,20.0,30.16,SSE,165,0.0,0.0,89,0.00,,,0.00,,2013-03-04 15:21:00,
2013-03-04 07:31:00,23.0,20.0,30.14,South,180,0.0,0.0,89,0.00,,,0.00,,2013-03-04 15:31:00,
2013-03-04 07:41:00,23.0,20.0,30.14,South,180,0.0,0.0,89,0.00,,,0.00,,2013-03-04 15:41:00,
2013-03-04 07:51:00,25.0,22.0,30.14,SSW,193,0.0,0.0,89,0.00,,,0.00,,2013-03-04 15:51:00,
2013-03-04 08:02:00,26.0,23.0,30.14,SSW,201,0.0,0.0,90,0.00,,,0.00,,2013-03-04 16:02:00,
2013-03-04 08:11:00,26.0,23.0,30.14,SSW,201,0.0,0.0,90,0.00,,,0.00,,2013-03-04 16:11:00,
2013-03-04 08:21:00,29.0,26.0,30.14,SW,220,0.0,0.0,89,0.00,,,0.00,,2013-03-04 16:21:00,
2013-03-04 08:31:00,30.0,27.0,30.14,SSW,210,0.0,0.0,88,0.00,,,0.00,,2013-03-04 16:31:00,
2013-03-04 08:41:00,30.0,27.0,30.14,SSW,210,0.0,0.0,88,0.00,,,0.00,,2013-03-04 16:41:00,
2013-03-04 08:52:00,31.0,28.0,30.12,West,269,0.0,0.0,88,0.00,,,0.00,,2013-03-04 16:52:00,
2013-03-04 09:01:00,33.0,30.0,30.11,West,270,0.0,2.0,87,0.00,,,0.00,,2013-03-04 17:01:00,
2013-03-04 09:11:00,33.0,30.0,30.11,West,270,0.0,2.0,87,0.00,,,0.00,,2013-03-04 17:11:00,
2013-03-04 09:21:00,36.0,32.0,30.11,SW,218,1.0,2.0,86,0.00,,,0.00,,2013-03-04 17:21:00,
2013-03-04 09:31:00,37.0,32.0,30.11,SW,234,2.0,4.0,82,0.00,,,0.00,,2013-03-04 17:31:00,
2013-03-04 09:42:00,37.0,32.0,30.11,SW,234,2.0,4.0,82,0.00,,,0.00,,2013-03-04 17:42:00,
2013-03-04 09:52:00,39.0,31.0,30.11,SW,224,3.0,5.0,73,0.00,,,0.00,,2013-03-04 17:52:00,
2013-03-04 10:01:00,39.0,31.0,30.09,WNW,284,2.0,5.0,72,0.00,,,0.00,,2013-03-04 18:01:00,
2013-03-04 10:11:00,39.0,31.0,30.09,WNW,284,2.0,5.0,72,0.00,,,0.00,,2013-03-04 18:11:00,
2013-03-04 10:21:00,41.0,30.0,30.09,West,274,3.0,5.0,65,0.00,,,0.00,,2013-03-04 18:21:00,
2013-03-04 10:31:00,42.0,31.0,30.09,WNW,295,3.0,4.0,64,0.00,,,0.00,,2013-03-04 18:31:00,
2013-03-04 10:41:00,42.0,31.0,30.09,WNW,295,3.0,4.0,64,0.00,,,0.00,,2013-03-04 18:41:00,
2013-03-04 10:52:00,43.0,31.0,30.08,WNW,283,2.0,4.0,63,0.00,,,0.00,,2013-03-04 18:52:00,
2013-03-04 11:01:00,44.0,31.0,30.08,WNW,300,3.0,6.0,60,0.00,,,0.00,,2013-03-04 19:01:00,
2013-03-04 11:11:00,44.0,31.0,30.08,WNW,300,3.0,6.0,60,0.00,,,0.00,,2013-03-04 19:11:00,
2013-03-04 11:21:00,47.0,32.0,30.06,WNW,290,2.0,6.0,55,0.00,,,0.00,,2013-03-04 19:21:00,
2013-03-04 11:31:00,47.0,31.0,30.06,West,275,1.0,4.0,54,0.00,,,0.00,,2013-03-04 19:31:00,
2013-03-04 11:41:00,47.0,31.0,30.06,West,275,1.0,4.0,54,0.00,,,0.00,,2013-03-04 19:41:00,
2013-03-04 11:52:00,47.0,31.0,30.08,West,269,4.0,6.0,54,0.00,,,0.00,,2013-03-04 19:52:00,
2013-03-04 12:01:00,48.0,32.0,30.06,West,271,3.0,5.0,53,0.00,,,0.00,,2013-03-04 20:01:00,
2013-03-04 12:11:00,49.0,32.0,30.06,NW,316,3.0,5.0,52,0.00,,,0.00,,2013-03-04 20:11:00,
2013-03-04 12:21:00,49.0,32.0,30.06,NW,316,3.0,5.0,52,0.00,,,0.00,,2013-03-04 20:21:00,
2013-03-04 12:31:00,50.0,33.0,30.06,WNW,299,2.0,6.0,52,0.00,,,0.00,,2013-03-04 20:31:00,
2013-03-04 12:41:00,50.0,33.0,30.06,WNW,299,2.0,6.0,52,0.00,,,0.00,,2013-03-04 20:41:00,
2013-03-04 12:52:00,50.0,33.0,30.06,WNW,285,1.0,5.0,51,0.00,,,0.00,,2013-03-04 20:52:00,
2013-03-04 13:01:00,52.0,32.0,30.04,WSW,254,0.0,4.0,47,0.00,,,0.00,,2013-03-04 21:01:00,
2013-03-04 13:11:00,52.0,32.0,30.04,WSW,254,0.0,4.0,47,0.00,,,0.00,,2013-03-04 21:11:00,
2013-03-04 13:21:00,52.0,32.0,30.03,WSW,253,3.0,5.0,47,0.00,,,0.00,,2013-03-04 21:21:00,
2013-03-04 13:31:00,53.0,34.0,30.03,WNW,286,3.0,5.0,48,0.00,,,0.00,,2013-03-04 21:31:00,
2013-03-04 13:41:00,53.0,34.0,30.03,WNW,286,3.0,5.0,48,0.00,,,0.00,,2013-03-04 21:41:00,
2013-03-04 13:52:00,54.0,35.0,30.03,West,260,3.0,8.0,49,0.00,,,0.00,,2013-03-04 21:52:00,
2013-03-04 14:01:00,54.0,36.0,30.03,West,263,5.0,8.0,50,0.00,,,0.00,,2013-03-04 22:01:00,
2013-03-04 14:11:00,54.0,36.0,30.03,West,263,5.0,8.0,50,0.00,,,0.00,,2013-03-04 22:11:00,
2013-03-04 14:21:00,55.0,36.0,30.01,WNW,302,3.0,6.0,49,0.00,,,0.00,,2013-03-04 22:21:00,
2013-03-04 14:31:00,55.0,35.0,30.01,WNW,295,2.0,7.0,47,0.00,,,0.00,,2013-03-04 22:31:00,
2013-03-04 14:42:00,55.0,35.0,30.01,WNW,295,2.0,7.0,47,0.00,,,0.00,,2013-03-04 22:42:00,
2013-03-04 14:52:00,57.0,34.0,29.99,SW,222,1.0,3.0,42,0.00,,,0.00,,2013-03-04 22:52:00,
2013-03-04 15:01:00,58.0,33.0,29.99,SW,234,2.0,3.0,39,0.00,,,0.00,,2013-03-04 23:01:00,
2013-03-04 15:11:00,58.0,33.0,29.99,SW,234,2.0,3.0,39,0.00,,,0.00,,2013-03-04 23:11:00,
2013-03-04 15:21:00,58.0,35.0,29.98,WSW,251,5.0,7.0,42,0.00,,,0.00,,2013-03-04 23:21:00,
2013-03-04 15:31:00,58.0,37.0,29.99,West,260,6.0,8.0,46,0.00,,,0.00,,2013-03-04 23:31:00,
2013-03-04 15:41:00,58.0,37.0,29.99,West,260,6.0,8.0,46,0.00,,,0.00,,2013-03-04 23:41:00,
2013-03-04 15:52:00,57.0,36.0,29.99,West,265,5.0,9.0,45,0.00,,,0.00,,2013-03-04 23:52:00,
2013-03-04 16:01:00,58.0,36.0,29.98,WSW,253,2.0,8.0,44,0.00,,,0.00,,2013-03-05 00:01:00,
2013-03-04 16:11:00,58.0,36.0,29.98,WSW,253,2.0,8.0,44,0.00,,,0.00,,2013-03-05 00:11:00,
2013-03-04 16:21:00,58.0,36.0,29.98,NW,308,1.0,5.0,44,0.00,,,0.00,,2013-03-05 00:21:00,
2013-03-04 16:32:00,58.0,35.0,29.96,West,265,0.0,3.0,42,0.00,,,0.00,,2013-03-05 00:32:00,
2013-03-04 16:41:00,58.0,35.0,29.96,West,265,0.0,3.0,42,0.00,,,0.00,,2013-03-05 00:41:00,
2013-03-04 16:52:00,56.0,34.0,29.96,SSE,160,1.0,1.0,43,0.00,,,0.00,,2013-03-05 00:52:00,
2013-03-04 17:01:00,55.0,36.0,29.96,SW,235,0.0,2.0,49,0.00,,,0.00,,2013-03-05 01:01:00,
2013-03-04 17:11:00,55.0,36.0,29.96,SW,235,0.0,2.0,49,0.00,,,0.00,,2013-03-05 01:11:00,
2013-03-04 17:21:00,54.0,38.0,29.96,SW,228,0.0,3.0,54,0.00,,,0.00,,2013-03-05 01:21:00,
2013-03-04 17:32:00,54.0,37.0,29.96,WSW,240,1.0,4.0,53,0.00,,,0.00,,2013-03-05 01:32:00,
2013-03-04 17:41:00,54.0,37.0,29.96,WSW,240,1.0,4.0,53,0.00,,,0.00,,2013-03-05 01:41:00,
2013-03-04 17:51:00,54.0,37.0,29.96,WSW,248,2.0,3.0,53,0.00,,,0.00,,2013-03-05 01:51:00,
2013-03-04 18:01:00,49.0,34.0,29.96,SSW,207,1.0,2.0,57,0.00,,,0.00,,2013-03-05 02:01:00,
2013-03-04 18:11:00,49.0,34.0,29.96,SSW,207,1.0,2.0,57,0.00,,,0.00,,2013-03-05 02:11:00,
2013-03-04 18:32:00,41.0,34.0,29.95,SSW,206,0.0,0.0,75,0.00,,,0.00,,2013-03-05 02:32:00,
2013-03-04 18:52:00,39.0,33.0,29.96,WNW,288,0.0,0.0,79,0.00,,,0.00,,2013-03-05 02:52:00,
2013-03-04 19:01:00,38.0,34.0,29.96,ENE,65,0.0,1.0,84,0.00,,,0.00,,2013-03-05 03:01:00,
2013-03-04 19:21:00,38.0,34.0,29.95,NE,54,1.0,2.0,85,0.00,,,0.00,,2013-03-05 03:21:00,
2013-03-04 19:31:00,36.0,32.0,29.96,ENE,77,0.0,1.0,84,0.00,,,0.00,,2013-03-05 03:31:00,
2013-03-04 19:52:00,36.0,32.0,29.96,NE,37,0.0,2.0,86,0.00,,,0.00,,2013-03-05 03:52:00,
2013-03-04 20:01:00,35.0,31.0,29.96,WNW,287,0.0,1.0,86,0.00,,,0.00,,2013-03-05 04:01:00,
2013-03-04 20:21:00,35.0,31.0,29.96,West,281,0.0,0.0,86,0.00,,,0.00,,2013-03-05 04:21:00,
2013-03-04 20:31:00,34.0,31.0,29.96,SE,132,0.0,0.0,87,0.00,,,0.00,,2013-03-05 04:31:00,
2013-03-04 20:52:00,34.0,31.0,29.96,NNW,348,0.0,0.0,87,0.00,,,0.00,,2013-03-05 04:52:00,
2013-03-04 21:01:00,33.0,30.0,29.96,SE,134,1.0,2.0,88,0.00,,,0.00,,2013-03-05 05:01:00,
2013-03-04 21:11:00,33.0,30.0,29.96,SE,134,1.0,2.0,88,0.00,,,0.00,,2013-03-05 05:11:00,
2013-03-04 21:22:00,33.0,30.0,29.96,WSW,248,0.0,0.0,88,0.00,,,0.00,,2013-03-05 05:22:00,
2013-03-04 21:31:00,32.0,29.0,29.96,SSE,158,0.0,0.0,88,0.00,,,0.00,,2013-03-05 05:31:00,
2013-03-04 21:41:00,32.0,29.0,29.96,SSE,158,0.0,0.0,88,0.00,,,0.00,,2013-03-05 05:41:00,
2013-03-04 21:52:00,33.0,30.0,29.96,West,278,0.0,3.0,90,0.00,,,0.00,,2013-03-05 05:52:00,
2013-03-04 22:01:00,33.0,30.0,29.96,WSW,245,0.0,1.0,90,0.00,,,0.00,,2013-03-05 06:01:00,
2013-03-04 22:11:00,33.0,30.0,29.96,WSW,245,0.0,1.0,90,0.00,,,0.00,,2013-03-05 06:11:00,
2013-03-04 22:21:00,32.0,29.0,29.96,North,356,0.0,0.0,90,0.00,,,0.00,,2013-03-05 06:21:00,
2013-03-04 22:31:00,31.0,28.0,29.96,ENE,78,0.0,0.0,90,0.00,,,0.00,,2013-03-05 06:31:00,
2013-03-04 22:41:00,31.0,28.0,29.96,ENE,78,0.0,0.0,90,0.00,,,0.00,,2013-03-05 06:41:00,
2013-03-04 22:52:00,31.0,28.0,29.96,East,87,0.0,1.0,90,0.00,,,0.00,,2013-03-05 06:52:00,
2013-03-04 23:01:00,31.0,28.0,29.96,SSW,202,0.0,0.0,90,0.00,,,0.00,,2013-03-05 07:01:00,
2013-03-04 23:11:00,31.0,28.0,29.96,SSW,202,0.0,0.0,90,0.00,,,0.00,,2013-03-05 07:11:00,
2013-03-04 23:21:00,31.0,28.0,29.96,SSW,202,0.0,0.0,90,0.00,,,0.00,,2013-03-05 07:21:00,
2013-03-04 23:31:00,30.0,27.0,29.95,WSW,242,0.0,0.0,90,0.00,,,0.00,,2013-03-05 07:31:00,
2013-03-04 23:41:00,30.0,27.0,29.95,WSW,242,0.0,0.0,90,0.00,,,0.00,,2013-03-05 07:41:00,
2013-03-04 23:52:00,29.0,26.0,29.93,East,100,0.0,0.0,90,0.00,,,0.00,,2013-03-05 07:52:00,